Tracking 18840 objects as of 20-November-2017
HD Live streaming from Space Station
objects crossing your sky now

FENGYUN 1C DEB

Track FENGYUN 1C DEB now!
10-day predictions


NORAD ID: 31086
Int'l Code: 1999-025BGG
Perigee: 558.6 km
Apogee: 734.8 km
Inclination: 99.0 °
Period: 97.5 minutes
Semi major axis: 7017 km
RCS: 0.0033 m2 (small)
Launch date: May 10, 1999
Source: People's Republic of China (PRC)
Launch site: Taiyaun Space Center, China (TSC)

Note: This is SATELLITE DEBRIS
aabbcc
Your satellite tracking list
Your tracking list is empty




NASA's NSSDC Master Catalog

Two Line Element Set (TLE):
1 31086U 99025BGG 17323.24502580 +.00001816 +00000-0 +23650-3 0  9990
2 31086 098.9873 327.9268 0125521 116.1463 301.4726 14.76762658569352
Source of the keplerian elements: AFSPC